GW4352 Weather Reports


Display with metric or nautical units.
time (UTC)temp
F
wind
direction
speed
MPH
gust
MPH
rain 1hr
in
rain 24hr
in
rain mn
in
humidity
%
barometer
mb
20260508004100 40 0.0 0.0 0.00 0.00 0.00 96 1013.3
20260508003027 40 0.0 0.0 0.00 0.00 0.00 96 1013.5
20260508002034 41 0.0 0.0 0.00 0.00 0.00 96 1013.6
20260508001027 41 0.0 0.0 0.00 0.00 0.00 96 1013.5
20260508000038 41 0.0 0.0 0.00 0.00 0.00 96 1013.7
20260507235043 42 0.0 0.0 0.00 0.00 0.00 95 1013.7
20260507234018 42 0.0 0.0 0.00 0.00 0.00 95 1013.8
20260507233025 43 0.0 0.0 0.00 0.00 0.00 95 1013.7
20260507232035 42 0.0 0.0 0.00 0.00 0.00 95 1013.6
20260507231034 43 0.0 0.0 0.00 0.00 0.00 94 1014.0
20260507230018 43 0.0 0.0 0.00 0.00 0.00 94 1013.9
20260507225049 44 0.0 0.0 0.00 0.00 0.00 94 1013.8
20260507224018 45 0.0 0.0 0.00 0.00 0.00 94 1014.1
20260507223041 45 0.0 0.0 0.00 0.00 0.00 93 1013.9
20260507222019 45 0.0 0.0 0.00 0.00 0.00 93 1014.0
20260507221026 45 0.0 0.0 0.00 0.00 0.00 92 1013.9
20260507220020 45 0.0 0.0 0.00 0.00 0.00 92 1013.9
20260507215026 45 0.0 0.0 0.00 0.00 0.00 91 1014.2
20260507214035 46 0.0 0.0 0.00 0.00 0.00 90 1014.3
20260507213027 46 0.0 0.0 0.00 0.00 0.00 89 1014.2
20260507212019 47 0.0 0.0 0.00 0.00 0.00 88 1014.3
20260507211043 47 0.0 0.0 0.00 0.00 0.00 87 1014.2
20260507210019 48 0.0 0.0 0.00 0.00 0.00 86 1014.1
20260507205025 49 0.0 0.0 0.00 0.00 0.00 86 1013.9
20260507204019 49 0.0 0.0 0.00 0.00 0.00 85 1014.0
20260507203047 49 0.0 0.0 0.00 0.00 0.00 84 1013.9
20260507202034 50 0.0 0.0 0.00 0.00 0.00 83 1013.9
20260507201029 51 0.0 0.0 0.00 0.00 0.00 80 1013.6
20260507200017 52 0.0 0.0 0.00 0.00 0.00 77 1013.4
20260507195041 53 0.0 0.0 0.00 0.00 0.00 75 1013.4
20260507194020 53 136 0.0 1.0 0.00 0.00 0.00 75 1013.3
20260507193026 54 0.0 0.0 0.00 0.00 0.00 74 1013.0
20260507192020 54 137 1.0 2.0 0.00 0.00 0.00 74 1013.0
20260507191028 54 138 0.0 2.0 0.00 0.00 0.00 73 1013.0
20260507190033 55 131 1.0 2.0 0.00 0.00 0.00 72 1013.2
20260507185049 55 129 1.0 2.0 0.00 0.00 0.00 72 1012.8
20260507184019 55 122 1.0 2.0 0.00 0.00 0.00 71 1012.9
20260507182019 55 115 1.0 3.0 0.00 0.00 0.00 70 1013.0
20260507181027 56 123 2.0 4.0 0.00 0.00 0.00 70 1012.9
20260507180019 56 159 2.0 3.0 0.00 0.00 0.00 69 1012.8
20260507175026 56 181 2.0 6.0 0.00 0.00 0.00 68 1012.9
20260507174055 56 167 4.0 7.0 0.00 0.00 0.00 69 1012.9
20260507173049 56 157 3.0 6.0 0.00 0.00 0.00 68 1012.9
20260507172018 56 165 5.0 9.0 0.00 0.00 0.00 67 1012.8
20260507171042 57 149 4.0 9.0 0.00 0.00 0.00 68 1013.1
20260507170033 57 176 5.0 10.0 0.00 0.00 0.00 67 1012.9
20260507165028 58 146 5.0 9.0 0.00 0.00 0.00 66 1013.1
20260507164017 58 141 3.0 10.0 0.00 0.00 0.00 64 1013.1
20260507163028 58 136 4.0 10.0 0.00 0.00 0.00 65 1012.8
20260507162115 58 162 3.0 7.0 0.00 0.00 0.00 65 1012.9
20260507161029 58 188 4.0 8.0 0.00 0.00 0.00 65 1012.8
20260507160138 58 155 3.0 4.0 0.00 0.00 0.00 65 1013.0
20260507155044 57 182 3.0 6.0 0.00 0.00 0.00 66 1012.9
20260507154019 57 198 2.0 4.0 0.00 0.00 0.00 67 1012.9
20260507153026 57 207 3.0 4.0 0.00 0.00 0.00 68 1012.9
20260507152022 56 213 3.0 4.0 0.00 0.00 0.00 67 1013.0
20260507151027 56 231 4.0 8.0 0.00 0.00 0.00 68 1013.0
20260507150035 56 223 4.0 9.0 0.00 0.00 0.00 68 1013.1
20260507145047 56 224 5.0 11.0 0.00 0.00 0.00 68 1013.2
20260507144019 57 212 5.0 9.0 0.00 0.00 0.00 64 1013.1
20260507143042 58 149 3.0 7.0 0.00 0.00 0.00 57 1013.2
20260507142019 58 175 4.0 7.0 0.00 0.00 0.00 57 1013.2
20260507141025 59 156 3.0 7.0 0.00 0.00 0.00 55 1012.9
20260507140020 60 124 4.0 7.0 0.00 0.00 0.00 52 1013.0
20260507135026 59 140 1.0 4.0 0.00 0.00 0.00 48 1013.1
20260507134033 60 58 1.0 2.0 0.00 0.00 0.00 45 1013.0
20260507133030 60 235 0.0 3.0 0.00 0.00 0.00 44 1012.8
20260507132018 59 296 0.0 2.0 0.00 0.00 0.00 47 1013.0
20260507131041 59 355 1.0 3.0 0.00 0.00 0.00 47 1013.1
20260507130018 59 338 1.0 4.0 0.00 0.00 0.00 48 1013.1
20260507125025 59 28 1.0 3.0 0.00 0.00 0.00 48 1013.1
20260507124040 59 1 2.0 4.0 0.00 0.00 0.00 48 1013.1
20260507123047 59 94 1.0 4.0 0.00 0.00 0.00 49 1013.3
20260507122034 59 39 3.0 6.0 0.00 0.00 0.00 50 1013.3
20260507121028 59 35 3.0 7.0 0.00 0.00 0.00 52 1013.3
20260507120019 59 62 3.0 6.0 0.00 0.00 0.00 52 1013.6
20260507115043 60 73 3.0 7.0 0.00 0.00 0.00 53 1013.6
20260507114018 60 81 3.0 8.0 0.00 0.00 0.00 53 1013.6
20260507113025 59 81 4.0 7.0 0.00 0.00 0.00 55 1013.6
20260507112019 58 60 2.0 7.0 0.00 0.00 0.00 56 1013.6
20260507111026 58 85 2.0 6.0 0.00 0.00 0.00 54 1013.5
20260507110034 58 88 3.0 7.0 0.00 0.00 0.00 52 1013.7
20260507105042 57 336 1.0 3.0 0.00 0.00 0.00 51 1013.7
20260507104018 57 245 2.0 3.0 0.00 0.00 0.00 52 1013.7
20260507103051 57 115 1.0 3.0 0.00 0.00 0.00 49 1013.7
20260507102018 57 186 2.0 4.0 0.00 0.00 0.00 49 1013.8
20260507101026 59 176 2.0 4.0 0.00 0.00 0.00 48 1013.7
20260507100019 59 112 1.0 3.0 0.00 0.00 0.00 49 1013.8
20260507095028 57 107 2.0 3.0 0.00 0.00 0.00 48 1014.0
20260507094035 55 250 2.0 3.0 0.00 0.00 0.00 55 1014.0
20260507093050 55 276 1.0 6.0 0.00 0.00 0.00 62 1013.8
20260507092017 55 264 4.0 6.0 0.00 0.00 0.00 64 1013.8
20260507091041 58 203 3.0 7.0 0.00 0.00 0.00 61 1013.8
20260507090019 57 153 2.0 4.0 0.00 0.00 0.00 62 1013.7
20260507085025 56 162 2.0 4.0 0.00 0.00 0.00 67 1014.0
20260507084021 55 174 1.0 4.0 0.00 0.00 0.00 69 1013.9
20260507083051 55 98 2.0 6.0 0.00 0.00 0.00 72 1013.9
20260507082033 55 92 1.0 3.0 0.00 0.00 0.00 74 1013.9
20260507081028 54 139 3.0 6.0 0.00 0.00 0.00 76 1013.7
20260507080038 54 84 2.0 4.0 0.00 0.00 0.00 77 1013.6
20260507075041 52 123 3.0 6.0 0.00 0.00 0.00 80 1013.5
20260507074018 52 48 1.0 3.0 0.00 0.00 0.00 84 1013.4
20260507073025 50 58 1.0 2.0 0.00 0.00 0.00 84 1013.4
20260507072021 50 82 1.0 2.0 0.00 0.00 0.00 84 1013.6
20260507071026 49 105 1.0 2.0 0.00 0.00 0.00 85 1013.5
20260507070034 48 115 0.0 1.0 0.00 0.00 0.00 86 1013.5
20260507065029 46 0.0 0.0 0.00 0.00 0.00 89 1013.3
20260507064022 45 0.0 0.0 0.00 0.00 0.00 92 1013.4
20260507063043 43 216 0.0 1.0 0.00 0.00 0.00 94 1013.2
20260507062018 42 216 0.0 2.0 0.00 0.00 0.00 95 1013.2
20260507061045 42 216 1.0 2.0 0.00 0.00 0.00 95 1013.4
20260507060019 41 217 1.0 2.0 0.00 0.00 0.00 96 1013.2
20260507055028 40 208 1.0 2.0 0.00 0.00 0.00 96 1013.1
20260507054033 40 0.0 0.0 0.00 0.00 0.00 96 1013.0
20260507053029 39 0.0 0.0 0.00 0.00 0.00 96 1012.9
20260507052019 39 0.0 0.0 0.00 0.00 0.00 96 1012.9
20260507051041 39 0.0 0.0 0.00 0.00 0.00 96 1012.9
20260507050018 38 0.0 0.0 0.00 0.00 0.00 97 1012.7
20260507045029 38 0.0 0.0 0.00 0.00 0.00 96 1012.8
20260507044023 38 206 0.0 1.0 0.00 0.00 0.00 96 1012.8
20260507043042 38 205 1.0 2.0 0.00 0.00 0.00 96 1012.8
20260507042021 39 206 1.0 2.0 0.00 0.00 0.00 96 1012.8
20260507041025 39 194 1.0 2.0 0.00 0.00 0.00 96 1012.7
20260507040018 39 0.0 0.0 0.00 0.00 0.00 96 1012.8
20260507035041 39 0.0 0.0 0.00 0.00 0.00 96 1012.8
20260507034021 40 165 0.0 1.0 0.00 0.00 0.00 96 1012.9
20260507033025 39 161 0.0 2.0 0.00 0.00 0.00 96 1012.8
20260507032023 39 0.0 0.0 0.00 0.00 0.00 96 1012.7
20260507031027 40 0.0 0.0 0.00 0.00 0.00 96 1012.7
20260507030033 40 0.0 0.0 0.00 0.00 0.00 96 1012.8
20260507025029 40 0.0 0.0 0.00 0.00 0.00 95 1012.7
20260507024018 41 0.0 0.0 0.00 0.00 0.00 95 1012.6
20260507023042 41 0.0 0.0 0.00 0.00 0.00 95 1012.6
20260507022023 41 0.0 0.0 0.00 0.00 0.00 95 1012.8
20260507021028 42 0.0 0.0 0.00 0.00 0.00 94 1012.5
20260507020022 42 0.0 0.0 0.00 0.00 0.00 94 1012.5
20260507015028 42 0.0 0.0 0.00 0.00 0.00 94 1012.5
20260507014035 42 0.0 0.0 0.00 0.00 0.00 94 1012.4
20260507013028 42 0.0 0.0 0.00 0.00 0.00 93 1012.6
20260507012023 42 0.0 0.0 0.00 0.00 0.00 93 1012.5
20260507010019 43 0.0 0.0 0.00 0.00 0.00 92 1012.6
20260507005026 42 0.0 0.0 0.00 0.00 0.00 90 1012.3